User: anonymous   Login
Location: Leeds
(37.2390°N, 113.3580°W)
Time: 01:07:03
(UTC-06:00)
Language:

SL-08 RB Rocket - Orbit

View from above orbital plane
View from above orbital plane
View from above satellite
View from above satellite

Ground track
Ground track

The orbit data is extracted from the following two-line orbital elements,

1 26387U 00033D   15186.19080793  .00000452  00000-0  87090-4 0  9999
2 26387 098.0621 253.9278 0028045 081.3011 341.3521 14.67918688803269
Epoch (UTC): 05 July 2015 04:34:45
Eccentricity: 0.0028045
inclination: 98.0621°
perigee height: 648 km
apogee height: 687 km
right ascension of ascending node: 253.9278°
argument of perigee: 81.3011°
revolutions per day: 14.67918688
mean anomaly at epoch: 341.3521°
orbit number at epoch: 80326

The dashed part of the orbit path shows where the satellite is in the earth's shadow,  

DLR